www.pogodaiklimat.ru

Погода и климат >> Архив погоды >> Россия >> Приморский край >> Барабаш


ПОГОДА в Барабаше

  • Прогноз погоды в Барабаше
  • Монитор погоды в Барабаше

АРХИВ ПОГОДЫ в Барабаше

Время (UTC), дата Ветер
(напр.,м/с)
 
Видим.   Явления Облачность Т
(С)
Тd
(С)
f
(%)
Тe
(С)
Тes
(С)
Комфортность P
(гПа)
Po
(гПа)
Тmin
(С)
Tmax
(С)
R
(мм)
R24
(мм)
S
(см)
09 12.02 штиль 0 10 км ясно -10.6 -26.8 25 -11 -11 1031.5 1026.7 -4.8
12 12.02 С 1 н/о н/о -18.5 -26.8 48 -21 1033.0 1028.0
15 12.02 СЗ 1 10 км ясно -21.7 -27.0 62 -25 -25 1034.3 1029.3
21 12.02 штиль 0 10 км ясно -25.6 -28.9 74 -26 -26 1033.2 1028.1 -25.6
00 13.02 В 1 н/о н/о -15.7 -22.3 57 -18 -18 1033.2 1028.3 -25.9
03 13.02 СЗ 4 50 км ясно -5.0 -26.9 16 -10 -6 1031.4 1026.7
06 13.02 СЗ 3 н/о н/о -3.3 -27.0 14 -7 1030.0 1025.3
09 13.02 СЗ 1 10 км ясно -6.4 -26.8 18 -8 -8 1031.4 1026.7 -2.9
12 13.02 штиль 0 н/о н/о -17.4 -25.5 49 -17 1033.0 1028.0
15 13.02 штиль 0 10 км ясно -20.9 -27.0 58 -21 -21 1034.3 1029.3
18 13.02 штиль 0 н/о н/о -16.2 -25.8 43 -16 1034.2 1029.3
21 13.02 штиль 0 10 км ясно -20.9 -26.2 62 -21 -21 1034.2 1029.2 -21.3
00 14.02 штиль 0 н/о н/о -12.8 -21.6 48 -13 -13 1034.5 1029.6 -21.5
03 14.02 Ю 1 20 км ясно -2.1 -26.8 13 -3 +6 1032.7 1028.0
06 14.02 ЮВ 3 н/о н/о -1.4 -23.9 16 -5 1029.9 1025.3
09 14.02 Ю 1 20 км ясно -7.7 -19.5 38 -10 -10 1030.1 1025.3 +0.5
12 14.02 штиль 0 н/о н/о -16.7 -22.4 61 -17 1030.2 1025.3
15 14.02 СЗ 1 10 км 4 балла -17.1 -22.4 63 -20 -20 1030.2 1025.3
18 14.02 С 1 н/о н/о -17.5 -22.3 66 -20 1028.9 1024.0
21 14.02 СЗ 1 10 км 10/0
[Ac As Ci]
-15.0 -21.0 60 -18 -18 1025.0 1020.2 -19.1
00 15.02 СЗ 1 н/о н/о -10.2 -21.9 38 -12 -12 1023.6 1018.8
03 15.02 ЮЗ 1 20 км слаб. снег 10 баллов -4.9 -12.1 57 -7 -7 1022.0 1017.3
06 15.02 штиль 0 н/о н/о -4.3 -7.1 81 -5 1019.3 1014.7
09 15.02 штиль 0 20 км 10/4 600 м
[Sc Ac und]
-6.3 -8.1 87 -7 -7 1018.0 1013.3 -3.6 0.3
12 15.02 СЗ 1 н/о н/о -11.5 -12.4 93 -14 1019.5 1014.7
15 15.02 штиль 0 10 км 7 баллов -16.7 -18.5 86 -17 -17 1019.6 1014.7
18 15.02 С 1 н/о н/о -14.9 -16.3 89 -17 1020.8 1016.0
21 15.02 С 1 10 км ясно -11.6 -16.4 68 -14 -14 1019.8 1015.0 -18.9 1
00 16.02 СЗ 2 н/о н/о -7.1 -15.0 53 -11 -11 1020.7 1016.0
03 16.02 СЗ 4 50 км ясно -1.1 -17.3 28 -6 -1 1019.3 1014.7
06 16.02 СЗ 2 н/о н/о +1.0 -18.9 21 -1 1016.5 1012.0
09 16.02 СЗ 2 20 км ясно -2.2 -20.0 24 -5 -5 1016.6 1012.0 +1.3
12 16.02 З 1 н/о н/о -7.6 -18.0 43 -9 1018.0 1013.3
15 16.02 СЗ 2 10 км ясно -4.1 -19.9 28 -7 -7 1017.9 1013.3
18 16.02 С 1 н/о н/о -8.9 -19.5 42 -11 1018.0 1013.3
21 16.02 В 1 10 км ясно -16.6 -20.3 73 -19 -19 1017.1 1012.2 -16.6
00 17.02 З 2 н/о н/о -2.7 -18.2 29 -6 -6 1017.1 1012.5 -16.7
03 17.02 СЗ 2 20 км ясно +4.1 -18.8 17 +3 +10 1016.5 1012.0
06 17.02 ЮВ 2 н/о н/о +4.3 -14.5 24 +3 1015.2 1010.7
09 17.02 СЗ 1 50 км ясно +0.4 -16.9 26 -0 -0 1015.2 1010.7 +6.9
12 17.02 штиль 0 н/о н/о -8.4 -16.0 54 -9 1019.4 1014.7
15 17.02 штиль 0 10 км ясно -11.2 -16.6 64 -11 -11 1020.8 1016.0
18 17.02 штиль 0 н/о н/о -8.3 -15.7 55 -9 1022.0 1017.3
21 17.02 штиль 0 10 км ясно -14.3 -17.5 77 -14 -14 1022.5 1017.6 -14.3
00 18.02 СЗ 2 н/о н/о -4.9 -14.4 47 -9 -9 1023.7 1019.0 -15.2
03 18.02 В 2 50 км ясно +5.3 -15.8 20 +4 +12 1023.2 1018.7
06 18.02 Ю 2 н/о н/о +7.2 -16.9 16 +6 1020.5 1016.0
09 18.02 Ю 2 20 км ясно +3.1 -6.6 49 +1 +1 1021.8 1017.3 +7.6
12 18.02 З 1 н/о н/о -6.1 -9.8 75 -8 1023.4 1018.7
15 18.02 С 2 10 км 10 баллов -8.5 -11.3 80 -13 -13 1023.4 1018.7
18 18.02 штиль 0 н/о н/о -7.3 -10.5 78 -8 1023.4 1018.7
21 18.02 штиль 0 10 км 8/0
[Cc]
-9.0 -11.3 83 -10 -10 1020.9 1016.2 -9.1
00 19.02 СЗ 1 н/о н/о -4.7 -8.7 74 -7 -7 1020.8 1016.1 -9.8
03 19.02 штиль 0 50 км 10 баллов +1.3 -5.6 60 +1 +1 1019.2 1014.7
06 19.02 Ю 1 н/о н/о +2.2 -4.3 62 +1 1017.8 1013.3

 

Местоположение метеостанции Барабаш (Приморский край, Россия): широта 43.20 долгота 131.40 высота над уровнем моря 36 м.

В архиве по умолчанию представлена погода в Барабаше за последнюю неделю. Архивные данные за месяц целиком и за предыдущие месяцы, начиная с января 2011 года, Вы можете получить, выбрав интересующий диапазон дат из раскрывающегося списка и нажав кнопку "Ввод!".


*Определитесь, кто Вы:
робот инопланетянин человек

Внимание! Время в таблицах - всемирное. Для получения местного времени необходимо прибавить поправку, которая равна 10 ч.

Смотрите также архив погоды в соседних городах и на ближайших метеорологических станциях:

Погода в Владивостоке (Приморский край, Россия) (42 км)
Погода на Мысе Назимова (Приморский край, Россия) (44 км)
Погода в Гамове (Приморский край, Россия) (74 км)
Погода в Посьете (Приморский край, Россия) (78 км)
Погода в Тимирязевском (Приморский край, Россия) (86 км)
Погода в Многоудобном (Приморский край, Россия) (92 км)
Погода в Полтавке (Приморский край, Россия) (93 км)
Погода в Находке (Приморский край, Россия) (122 км)
Погода в Сонбонге (КНДР) (127 км)
Погода в Партизанске (Приморский край, Россия) (130 км)

Пояснения к столбцам:

Ветер - указаны скорость ветра в м/с - средняя за 10 мин, порывы в срок и между сроками (в фигурных скобках) и направление, откуда дует ветер: С - северный, СВ - северо-восточный, В - восточный, ЮВ - юго-восточный, Ю - южный, ЮЗ - юго-западный, З - западный, СЗ - северо-западный.
Видимость - горизонтальная дальность видимости в метрах или километрах. При видимости от 1 до 10 км при отсутствии осадков обычно наблюдается дымка, при ухудшении видимости до 1 км и менее - туман. В сухую погоду видимость может ухудшаться дымом, пылью или мглою.
Явления - указаны атмосферные явления, наблюдавшиеся в срок или в последний час перед сроком; фигурными скобками обозначены явления, наблюдавшиеся между сроками (за 1-3 часа до срока); квадратными скобками обозначены град или гололедные отложения с указанием их диаметра в мм.
Облачность - указаны через наклонную черту общая и нижняя облачность в баллах и высота нижней границы облаков в метрах; квадратными скобками обозначены формы облаков: Ci - перистые, Cs - перисто-слоистые, Cc - перисто-кучевые, Ac - высококучевые, As - высокослоистые, Sc - слоисто-кучевые, Ns - слоисто-дождевые, Cu - кучевые, Cb - кучево-дождевые. Подробнее классификацию облаков см. в Атласе облаков (PDF).
T - Температура воздуха - температура, измеренная на высоте 2 м над землей.
Td - Температура точки росы - температура, при понижении до которой содержащийся в воздухе водяной пар достигнет насыщения.
f - Относительная влажность воздуха - влажноcть воздуха, измеренная на высоте 2 м над землей.
Te - Эффективная температура - температура, которую ощущает одетый по сезону человек в тени. Характеристика душности погоды. При расчете учитывается влияние влажности воздуха и скорости ветра на теплоощущения человека.
Tes - Эффективная температура на солнце - температура, которую ощущает человек, с поправкой на солнечный нагрев. Характеристика знойности погоды. Зависит от высоты солнца над горизонтом, облачности и скорости ветра. Ночью, в пасмурную погоду, а также при ветре 12 м/с и более поправка равна нулю.
P - Атмосферное давление - приведенное к уровню моря атмосферное давление.
Po - Атмосферное давление - измеренное на уровне метеостанции атмосферное давление.
Tmin - Минимальная температура - минимум температуры воздуха на высоте 2 м над землей.
Tmax - Максимальная температура - максимум температуры воздуха на высоте 2 м над землей.
R - Количество осадков - Количество выпавших осадков за период времени, мм. При наведении курсора мыши на число - период времени, за который выпало указанное количество осадков.
R24 - Количество осадков - Количество выпавших осадков за 24 часа, мм.
S - Снежный покров - Высота снежного покрова, см. При наведении курсора мыши на число - состояние снежного покрова и степень покрытия местности в баллах.